Home   Weather   Winslow   Past weeks
Flag for USA

Past Weather in Winslow, Arizona, USA — Yesterday and Last 2 Weeks

Now
59 °F

Sunny.


Feels Like: 57 °F
Forecast: 76 / 38 °F
Wind: 12 mph from Northwest

Location: Winslow Municipal Airport

Current Time: Apr 18, 2019 at 9:45:27 am

Latest Report: Apr 18, 2019 at 8:56 am


Visibility: 10 mi

Pressure: 30.22 "Hg (25.36 "Hg at 1478m altitude)

Humidity: 33%

Dew Point: 30 °F

Location of WinslowLocation

Past Weather in Winslow — Graph

°F

Winslow Temperature Yesterday

Maximum temperature yesterday: 68 °F (at 3:56 pm)
Minimum temperature yesterday: 42 °F (at 11:56 pm)
Average temperature yesterday: 53 °F

High & Low Weather Summary for the Past Weeks

 TemperatureHumidityPressure
High83 °F (Apr 9, 12:56 pm)86% (Apr 13, 12:56 am)30.20 "Hg (Apr 13, 12:56 am)
Low32 °F (Apr 11, 5:56 am)10% (Apr 8, 4:56 pm)29.48 "Hg (Apr 9, 11:56 pm)
Average55 °F37%29.88 "Hg
* Reported Apr 3 7:56 am — Apr 18 7:56 am, Winslow. Weather by CustomWeather, © 2019

Note: Actual official high and low records may vary slightly from our data, if they occured in-between our weather recording intervals... More about our weather records

Advertising

Winslow Weather History for the Previous 24 Hours

Scroll right to see more
 ConditionsComfort  
Time TempWeatherWind HumidityBarometerVisibility
7:56 am
Thu, Apr 18
52 °FSunny.9 mph41%30.20 "Hg10 mi
6:56 am45 °FSunny.5 mph53%30.17 "Hg10 mi
4:56 am44 °FClear.No wind51%30.09 "Hg10 mi
3:56 am45 °FClear.5 mph49%30.06 "Hg10 mi
2:56 am42 °FClear.3 mph53%30.07 "Hg10 mi
1:56 am41 °FClear.7 mph55%30.06 "Hg10 mi
12:56 am42 °FClear.6 mph51%30.07 "Hg10 mi
11:56 pm
Wed, Apr 17
42 °FClear.6 mph47%30.07 "Hg10 mi
10:56 pm44 °FClear.5 mph41%30.05 "Hg10 mi
9:56 pm46 °FClear.10 mph37%30.04 "Hg10 mi
8:56 pm49 °FClear.7 mph33%30.03 "Hg10 mi
7:56 pm55 °FClear.5 mph28%29.99 "Hg10 mi
6:56 pm63 °FClear.13 mph22%29.95 "Hg10 mi
5:56 pm66 °FSunny.18 mph22%29.93 "Hg10 mi
4:56 pm67 °FSunny.23 mph24%29.91 "Hg10 mi
3:56 pm68 °FSunny.15 mph26%29.90 "Hg10 mi
2:56 pm66 °FPassing clouds.23 mph29%29.92 "Hg10 mi
1:56 pm66 °FOvercast.14 mph31%29.92 "Hg10 mi
12:56 pm61 °FMore clouds than sun.12 mph38%29.93 "Hg10 mi
11:56 am59 °FMostly cloudy.17 mph44%29.93 "Hg10 mi
10:56 am58 °FBroken clouds.13 mph47%29.94 "Hg10 mi
9:56 am55 °FMostly cloudy.18 mph57%29.94 "Hg10 mi
Weather by CustomWeather, © 2019

See weather overview